SCP
0 0 0 0 0 0 0 0 0 0 0 0 0 -0 -0 -0 0 0 0 0 0 0 0 0 0 0 0 0 0 0 0 0
0 0 0 0 0 0 0 0 0 0 0 0 0 -0 -0 -0 0 0 0 0 0 0 0 0 0 0 0 0 0 0 0 0
0 0 0 0 0 0 0 0 0 0 -0 -0 0 -0 0 -0 0 0 0 0 0 0 0 0 0 0 0 0 0 0 0 0
0 0 0 0 0 0 0 0 0 0 0 -0 -0 -0 0 0 0 0 0 0 0 0 0 0 0 0 0 0 0 0 0 0
0 0 0 0 0 0 0 0 0 0 0 0 -0 -0 -0 0 -0 0 0 0 0 0 0 0 0 0 0 0 0 0 0 0
0 0 0 0 -0 0 0 0 0 0 0 0 0 -0 -0 -0 -0 0 0 0 0 0 0 0 0 0 0 0 0 0 0 0
-0 -0 0 -0 -0 -0 -0 -0 0 0 0 0 0 0 -0 -0 -0 -0 0 0 0 0 0 0 0 0 0 0 0 0 0 0
0 -0 -0 -0 -0 -0 -0 -0 -0 0 0 0 0 0 0 0 0 -0 -0 -0 0 0 0 0 0 0 0 0 0 0 0 0
0 0 -0 -0 -0 -0 -0 -0 -0 -0 0 0 0 0 0 0 0 0 0 -0 0 0 0 0 0 0 0 0 0 0 0 0
0 0 0 0 0 0 0 -0 -0 -0 -0 0 0 0 0 0 0 0 0 0 -0 0 0 0 0 0 0 0 0 0 0 0
0 0 0 0 0 0 0 0 0 0 0 0 0 0 0 -0 0 0 0 0 0 -0 0 0 0 0 0 0 0 0 0 0
0 0 0 0 0 0 0 0 0 0 0 0 0 0 -0 -0 -0 -0 -0 0 0 0 -0 0 0 0 0 0 0 0 0 0
0 0 0 0 0 0 0 0 0 0 0 0 0 0 0 -0 -0 -0 -0 -0 -0 -0 -0 -0 -0 0 -0 0 0 0 0 0
0 0 0 0 0 0 0 0 0 0 0 0 0 0 -0 -0 -0 -0 -0 -0 -0 -0 0 0 0 0 -0 -0 -0 -0 0 0
0 0 0 0 0 0 0 0 0 0 0 0 0 -0 -0 -0 -0 -0 -0 -0 -0 -0 -0 0 0 0 0 0 0 0 0 0
0 0 0 0 0 0 0 0 0 0 0 0 0 0 -0 -0 -0 0 0 0 -0 -0 -0 0 0 0 0 0 0 0 0 0
0 0 0 0 0 0 0 0 0 0 0 0 0 0 0 -0 -0 0 0 0 0 0 0 0 0 0 0 0 0 0 0 0
0 0 0 0 0 0 0 0 0 0 0 0 0 0 0 0 0 -0 0 0 0 0 0 0 0 0 0 0 0 0 0 0
0 0 0 0 0 0 0 0 0 0 0 0 0 0 0 0 0 0 0 0 0 0 0 0 0 0 0 0 0 0 0 0
0 0 0 0 0 0 0 0 0 0 0 0 0 0 0 0 0 0 0 0 0 0 0 0 0 0 0 0 0 0 0 0
Wind_Speed_500mb
40 45 50 53 55 56 57 59 61 58 55 55 54 51 48 51 57 59 66 70 69 70 78 88 102 127 133 131 128 124 116 113
33 41 46 52 56 58 63 67 67 66 63 63 60 56 53 54 56 60 60 63 68 71 71 79 92 104 128 134 132 127 120 115
33 36 43 49 55 57 60 61 65 67 68 64 62 62 58 56 54 54 59 61 64 69 72 77 85 91 106 127 135 130 126 122
31 34 37 42 48 51 52 55 60 65 65 67 68 66 65 65 62 53 57 53 62 67 71 79 82 85 94 102 127 130 128 126
34 34 34 36 40 45 54 55 59 59 62 63 64 64 68 66 69 66 53 55 59 66 63 76 79 85 89 97 107 123 127 127
40 40 37 39 42 46 52 57 63 66 65 66 67 67 65 64 67 67 68 59 55 67 62 65 77 85 89 99 103 106 118 128
45 45 43 45 51 53 49 54 55 61 67 71 72 72 70 67 71 71 67 68 62 60 63 67 74 79 83 93 103 101 107 123
54 54 52 48 49 50 57 61 59 59 61 63 68 71 71 71 70 71 70 72 69 69 59 66 73 74 76 83 97 102 105 109
57 64 66 70 69 63 69 69 70 71 70 71 72 73 73 72 73 71 71 70 82 76 70 64 68 72 75 79 85 97 105 108
69 74 85 86 81 85 88 86 85 81 75 74 78 81 82 80 79 78 78 75 74 83 78 72 71 66 72 73 83 89 98 104
78 85 97 95 88 93 97 94 94 83 82 82 83 84 89 95 93 88 86 86 82 79 79 76 73 65 68 66 80 89 95 103
78 89 96 89 76 84 90 95 89 93 96 92 94 97 97 97 102 104 98 93 89 87 79 81 78 68 59 64 74 88 90 100
86 94 98 80 75 81 88 90 82 83 94 107 109 107 108 110 109 108 110 105 97 90 87 83 80 74 61 58 68 91 104 104
69 79 92 84 79 81 87 78 82 84 100 109 117 125 126 121 119 119 112 99 92 93 90 86 82 76 65 59 60 73 101 101
76 84 90 82 80 78 82 75 84 92 102 108 109 112 122 123 119 111 110 93 68 78 89 87 82 79 66 60 60 63 89 94
78 84 88 85 85 82 85 88 101 105 104 100 96 93 96 98 100 97 102 91 83 70 69 73 80 78 61 54 57 59 83 85
75 78 85 86 87 86 86 86 88 88 82 77 76 78 79 81 97 88 81 81 79 78 76 81 81 70 61 50 44 50 80 86
78 81 86 87 88 84 81 78 79 82 82 80 75 74 73 72 72 85 86 70 75 72 73 69 76 76 69 52 33 52 82 90
81 83 85 84 86 79 76 75 76 78 78 80 79 77 75 72 70 69 72 72 75 52 41 48 61 61 68 53 31 50 78 88
79 81 80 80 76 68 70 71 73 76 78 76 77 77 75 72 72 69 69 72 73 71 57 44 44 50 57 57 47 59 84 77
Wind_Direction_500mb
351 346 347 347 346 344 344 343 344 343 345 344 340 325 310 299 292 288 283 279 272 266 262 257 248 239 236 235 235 233 230 229
0 356 347 344 345 345 340 338 338 341 341 341 343 340 327 309 300 293 287 281 275 269 262 256 252 246 238 236 236 235 232 230
350 353 353 348 345 341 341 340 338 337 337 338 338 343 340 330 313 299 292 285 279 272 265 258 253 249 246 238 236 235 232 232
352 351 351 345 342 341 343 342 339 338 334 335 336 337 340 339 333 316 300 292 283 273 266 259 254 250 247 244 239 237 235 234
349 345 343 340 338 337 338 337 337 338 338 339 341 339 335 332 334 334 318 298 293 281 272 266 261 255 252 247 242 238 237 237
338 338 334 329 329 331 332 331 332 332 334 331 331 336 338 332 328 326 330 319 293 288 280 272 265 258 254 250 244 241 238 237
328 326 323 322 322 323 324 324 324 324 323 324 328 330 330 333 333 326 320 326 317 290 284 278 269 265 259 255 251 245 241 239
325 323 319 312 311 312 316 316 317 316 316 317 318 321 325 330 329 326 323 315 319 310 286 275 275 272 265 259 256 250 245 242
316 316 316 314 311 309 312 312 311 311 312 313 314 315 317 321 325 328 325 318 310 310 309 285 271 272 268 263 257 253 248 244
307 311 311 310 308 311 309 310 310 307 307 306 306 309 311 312 317 321 322 319 314 309 308 306 287 272 263 260 255 250 247 244
300 305 308 308 308 306 305 305 303 303 301 300 300 300 303 306 309 312 315 316 314 309 304 303 295 281 270 251 240 245 245 240
300 303 303 305 304 300 301 298 300 300 297 295 294 296 297 298 301 305 306 308 309 307 304 297 297 289 274 256 243 246 243 240
302 302 301 299 297 295 292 295 294 292 289 292 291 290 292 294 294 297 300 301 302 304 302 297 291 293 283 260 241 236 235 241
298 295 294 296 296 293 292 294 292 284 282 286 289 290 290 290 290 291 293 295 295 296 296 295 292 287 287 270 250 234 235 239
301 299 296 297 294 291 291 292 283 280 281 284 287 289 289 290 289 288 286 285 278 283 289 291 288 284 284 280 255 232 232 235
301 298 296 297 294 291 289 287 285 286 288 289 288 288 288 287 285 281 276 274 276 272 274 277 278 281 285 283 271 234 227 223
308 303 302 301 300 301 302 300 295 293 293 291 289 287 286 285 287 280 274 273 269 268 264 265 269 273 274 276 269 235 226 217
311 306 305 304 305 311 313 310 304 298 296 294 290 287 285 283 282 286 286 277 272 268 262 253 259 263 268 266 251 227 221 220
315 310 311 309 309 319 319 313 308 305 303 297 293 290 286 282 280 281 283 288 288 270 253 257 252 249 254 255 232 220 209 219
322 320 318 315 317 324 321 317 313 310 305 303 300 296 291 285 282 280 279 280 283 285 270 245 246 243 238 242 227 213 203 209
Wind_Speed_850mb
40 45 50 53 55 56 57 59 61 58 55 55 54 51 48 51 57 59 66 70 69 70 78 88 102 127 133 131 128 124 116 113
33 41 46 52 56 58 63 67 67 66 63 63 60 56 53 54 56 60 60 63 68 71 71 79 92 104 128 134 132 127 120 115
33 36 43 49 55 57 60 61 65 67 68 64 62 62 58 56 54 54 59 61 64 69 72 77 85 91 106 127 135 130 126 122
31 34 37 42 48 51 52 55 60 65 65 67 68 66 65 65 62 53 57 53 62 67 71 79 82 85 94 102 127 130 128 126
34 34 34 36 40 45 54 55 59 59 62 63 64 64 68 66 69 66 53 55 59 66 63 76 79 85 89 97 107 123 127 127
40 40 37 39 42 46 52 57 63 66 65 66 67 67 65 64 67 67 68 59 55 67 62 65 77 85 89 99 103 106 118 128
45 45 43 45 51 53 49 54 55 61 67 71 72 72 70 67 71 71 67 68 62 60 63 67 74 79 83 93 103 101 107 123
54 54 52 48 49 50 57 61 59 59 61 63 68 71 71 71 70 71 70 72 69 69 59 66 73 74 76 83 97 102 105 109
57 64 66 70 69 63 69 69 70 71 70 71 72 73 73 72 73 71 71 70 82 76 70 64 68 72 75 79 85 97 105 108
69 74 85 86 81 85 88 86 85 81 75 74 78 81 82 80 79 78 78 75 74 83 78 72 71 66 72 73 83 89 98 104
78 85 97 95 88 93 97 94 94 83 82 82 83 84 89 95 93 88 86 86 82 79 79 76 73 65 68 66 80 89 95 103
78 89 96 89 76 84 90 95 89 93 96 92 94 97 97 97 102 104 98 93 89 87 79 81 78 68 59 64 74 88 90 100
86 94 98 80 75 81 88 90 82 83 94 107 109 107 108 110 109 108 110 105 97 90 87 83 80 74 61 58 68 91 104 104
69 79 92 84 79 81 87 78 82 84 100 109 117 125 126 121 119 119 112 99 92 93 90 86 82 76 65 59 60 73 101 101
76 84 90 82 80 78 82 75 84 92 102 108 109 112 122 123 119 111 110 93 68 78 89 87 82 79 66 60 60 63 89 94
78 84 88 85 85 82 85 88 101 105 104 100 96 93 96 98 100 97 102 91 83 70 69 73 80 78 61 54 57 59 83 85
75 78 85 86 87 86 86 86 88 88 82 77 76 78 79 81 97 88 81 81 79 78 76 81 81 70 61 50 44 50 80 86
78 81 86 87 88 84 81 78 79 82 82 80 75 74 73 72 72 85 86 70 75 72 73 69 76 76 69 52 33 52 82 90
81 83 85 84 86 79 76 75 76 78 78 80 79 77 75 72 70 69 72 72 75 52 41 48 61 61 68 53 31 50 78 88
79 81 80 80 76 68 70 71 73 76 78 76 77 77 75 72 72 69 69 72 73 71 57 44 44 50 57 57 47 59 84 77
Wind_Direction_850mb
351 346 347 347 346 344 344 343 344 343 345 344 340 325 310 299 292 288 283 279 272 266 262 257 248 239 236 235 235 233 230 229
0 356 347 344 345 345 340 338 338 341 341 341 343 340 327 309 300 293 287 281 275 269 262 256 252 246 238 236 236 235 232 230
350 353 353 348 345 341 341 340 338 337 337 338 338 343 340 330 313 299 292 285 279 272 265 258 253 249 246 238 236 235 232 232
352 351 351 345 342 341 343 342 339 338 334 335 336 337 340 339 333 316 300 292 283 273 266 259 254 250 247 244 239 237 235 234
349 345 343 340 338 337 338 337 337 338 338 339 341 339 335 332 334 334 318 298 293 281 272 266 261 255 252 247 242 238 237 237
338 338 334 329 329 331 332 331 332 332 334 331 331 336 338 332 328 326 330 319 293 288 280 272 265 258 254 250 244 241 238 237
328 326 323 322 322 323 324 324 324 324 323 324 328 330 330 333 333 326 320 326 317 290 284 278 269 265 259 255 251 245 241 239
325 323 319 312 311 312 316 316 317 316 316 317 318 321 325 330 329 326 323 315 319 310 286 275 275 272 265 259 256 250 245 242
316 316 316 314 311 309 312 312 311 311 312 313 314 315 317 321 325 328 325 318 310 310 309 285 271 272 268 263 257 253 248 244
307 311 311 310 308 311 309 310 310 307 307 306 306 309 311 312 317 321 322 319 314 309 308 306 287 272 263 260 255 250 247 244
300 305 308 308 308 306 305 305 303 303 301 300 300 300 303 306 309 312 315 316 314 309 304 303 295 281 270 251 240 245 245 240
300 303 303 305 304 300 301 298 300 300 297 295 294 296 297 298 301 305 306 308 309 307 304 297 297 289 274 256 243 246 243 240
302 302 301 299 297 295 292 295 294 292 289 292 291 290 292 294 294 297 300 301 302 304 302 297 291 293 283 260 241 236 235 241
298 295 294 296 296 293 292 294 292 284 282 286 289 290 290 290 290 291 293 295 295 296 296 295 292 287 287 270 250 234 235 239
301 299 296 297 294 291 291 292 283 280 281 284 287 289 289 290 289 288 286 285 278 283 289 291 288 284 284 280 255 232 232 235
301 298 296 297 294 291 289 287 285 286 288 289 288 288 288 287 285 281 276 274 276 272 274 277 278 281 285 283 271 234 227 223
308 303 302 301 300 301 302 300 295 293 293 291 289 287 286 285 287 280 274 273 269 268 264 265 269 273 274 276 269 235 226 217
311 306 305 304 305 311 313 310 304 298 296 294 290 287 285 283 282 286 286 277 272 268 262 253 259 263 268 266 251 227 221 220
315 310 311 309 309 319 319 313 308 305 303 297 293 290 286 282 280 281 283 288 288 270 253 257 252 249 254 255 232 220 209 219
322 320 318 315 317 324 321 317 313 310 305 303 300 296 291 285 282 280 279 280 283 285 270 245 246 243 238 242 227 213 203 209